This demonstration page uses our WeatherBlox Daily Observations layout. Learn more.

Left ArrowRight Arrow

Hourly Observations for December 29, 2020

Temp ( °F °C ) Dew Point ( °F °C ) Humidity (%) Winds ( mph kmh ) Pressure ( in mb ) Visibility ( mi km ) Precip ( " mm )
12:15 am 00:15 Clear 23 -5 23 -5 100 100 WNW 3 6 30.53 1034 10 16.0934 N/A
12:35 am 00:35 Clear 21 -6 21 -6 100 100 Calm 30.54 1034 10 16.0934 N/A
12:55 am 00:55 Clear 21 -6 21 -6 100 100 Calm 30.54 1034 10 16.0934 N/A
1:15 am 01:15 Clear 23 -5 23 -5 100 100 Calm 30.54 1034 10 16.0934 N/A
1:35 am 01:35 Clear 19 -7 19 -7 100 100 Calm 30.56 1035 10 16.0934 N/A
1:55 am 01:55 Clear 21 -6 21 -6 100 100 Calm 30.55 1034 10 16.0934 N/A
2:15 am 02:15 Clear 19 -7 19 -7 100 100 Calm 30.56 1035 10 16.0934 N/A
2:35 am 02:35 Clear 18 -8 18 -8 100 100 Calm 30.57 1035 10 16.0934 N/A
2:55 am 02:55 Clear 21 -6 21 -6 100 100 Calm 30.57 1035 10 16.0934 N/A
3:15 am 03:15 Clear 21 -6 21 -6 100 100 Calm 30.58 1036 10 16.0934 N/A
3:35 am 03:35 Clear 18 -8 18 -8 100 100 Calm 30.6 1036 10 16.0934 N/A
3:55 am 03:55 Clear 18 -8 18 -8 100 100 Calm 30.6 1036 10 16.0934 N/A
4:15 am 04:15 Clear 18 -8 18 -8 100 100 Calm 30.6 1036 10 16.0934 N/A
4:35 am 04:35 Clear 19 -7 19 -7 100 100 Calm 30.59 1036 10 16.0934 N/A
4:55 am 04:55 Clear 19 -7 19 -7 100 100 Calm 30.6 1036 10 16.0934 N/A
5:15 am 05:15 Clear 18 -8 18 -8 100 100 Calm 30.61 1036 10 16.0934 N/A
5:35 am 05:35 Clear 19 -7 19 -7 100 100 Calm 30.61 1037 10 16.0934 N/A
5:55 am 05:55 Clear 19 -7 19 -7 100 100 Calm 30.61 1037 10 16.0934 N/A
6:15 am 06:15 Clear 18 -8 18 -8 100 100 Calm 30.62 1037 10 16.0934 N/A
6:35 am 06:35 Clear 18 -8 18 -8 100 100 Calm 30.62 1037 10 16.0934 N/A
6:55 am 06:55 Clear 18 -8 18 -8 100 100 Calm 30.63 1037 10 16.0934 N/A
7:15 am 07:15 Clear 18 -8 18 -8 100 100 Calm 30.64 1037 10 16.0934 N/A
7:35 am 07:35 Clear 16 -9 16 -9 100 100 Calm 30.64 1038 10 16.0934 N/A
7:55 am 07:55 Clear 18 -8 18 -8 100 100 Calm 30.64 1037 10 16.0934 N/A
8:15 am 08:15 Sunny 18 -8 18 -8 100 100 Calm 30.65 1038 10 16.0934 N/A
8:35 am 08:35 Sunny 19 -7 19 -7 100 100 Calm 30.62 1037 10 16.0934 N/A
8:55 am 08:55 Sunny 21 -6 21 -6 100 100 Calm 30.62 1037 10 16.0934 N/A
9:15 am 09:15 Sunny 23 -5 23 -5 100 100 Calm 30.62 1037 10 16.0934 N/A
9:35 am 09:35 Sunny 23 -5 23 -5 100 100 Calm 30.62 1037 10 16.0934 N/A
9:55 am 09:55 Sunny 25 -4 25 -4 100 100 ENE 7 11 30.6 1036 10 16.0934 N/A
10:15 am 10:15 Sunny 25 -4 25 -4 100 100 E 6 9 30.62 1037 10 16.0934 N/A
10:35 am 10:35 Sunny 28 -2 27 -3 93 93 ESE 5 7 30.61 1037 10 16.0934 N/A
10:55 am 10:55 Sunny 28 -2 27 -3 93 93 E 9 15 30.59 1036 10 16.0934 N/A
11:15 am 11:15 Sunny 28 -2 27 -3 93 93 ESE 9 15 30.58 1036 10 16.0934 N/A
11:35 am 11:35 Sunny 30 -1 25 -4 80 80 ESE 12 19 30.57 1035 10 16.0934 N/A
11:55 am 11:55 Sunny 32 0 23 -5 69 69 ESE 12 19 30.57 1035 10 16.0934 N/A
12:15 pm 12:15 Sunny 32 0 23 -5 69 69 ESE 10 17 30.57 1035 10 16.0934 N/A
12:35 pm 12:35 Sunny 32 0 25 -4 75 75 SE 12 19 30.57 1035 10 16.0934 N/A
12:55 pm 12:55 Partly Cloudy 32 0 23 -5 69 69 SE 8 13 30.57 1035 10 16.0934 N/A
1:15 pm 13:15 Mostly Cloudy 32 0 23 -5 69 69 SE 10 17 30.56 1035 10 16.0934 N/A
1:35 pm 13:35 Mostly Cloudy 32 0 21 -6 64 64 SE 12 19 30.55 1034 10 16.0934 N/A
1:55 pm 13:55 Partly Cloudy 32 0 21 -6 64 64 ESE 12 19 30.53 1034 10 16.0934 N/A
2:15 pm 14:15 Partly Cloudy 32 0 21 -6 64 64 ESE 13 20 30.52 1033 10 16.0934 N/A
2:35 pm 14:35 Mostly Cloudy 34 1 23 -5 65 65 E 13 20 30.49 1033 10 16.0934 N/A
2:55 pm 14:55 Mostly Cloudy 32 0 21 -6 64 64 ESE 10 17 30.48 1032 10 16.0934 N/A
3:15 pm 15:15 Mostly Cloudy 32 0 21 -6 64 64 ESE 12 19 30.47 1032 10 16.0934 N/A
3:35 pm 15:35 Cloudy 32 0 21 -6 64 64 E 15 24 30.46 1031 10 16.0934 N/A
3:55 pm 15:55 Cloudy 32 0 21 -6 64 64 E 13 20 30.45 1031 10 16.0934 N/A
4:15 pm 16:15 Cloudy 32 0 23 -5 69 69 E 10 17 30.45 1031 10 16.0934 N/A
4:35 pm 16:35 Mostly Cloudy 32 0 23 -5 69 69 ESE 10 17 30.44 1031 10 16.0934 N/A
4:55 pm 16:55 Cloudy 32 0 23 -5 69 69 ESE 10 17 30.44 1031 10 16.0934 N/A
5:15 pm 17:15 Cloudy 32 0 23 -5 69 69 E 10 17 30.43 1030 10 16.0934 N/A
5:35 pm 17:35 Cloudy 32 0 23 -5 69 69 ESE 12 19 30.41 1030 10 16.0934 N/A
5:55 pm 17:55 Cloudy 32 0 21 -6 64 64 ESE 10 17 30.42 1030 10 16.0934 N/A
6:15 pm 18:15 Cloudy 32 0 21 -6 64 64 ESE 10 17 30.42 1030 10 16.0934 N/A
6:35 pm 18:35 Cloudy 32 0 21 -6 64 64 ESE 9 15 30.42 1030 10 16.0934 N/A
6:55 pm 18:55 Cloudy 32 0 21 -6 64 64 ESE 8 13 30.42 1030 10 16.0934 N/A
7:15 pm 19:15 Cloudy 32 0 23 -5 69 69 E 9 15 30.4 1029 10 16.0934 N/A
7:35 pm 19:35 Cloudy 32 0 23 -5 69 69 ESE 10 17 30.41 1030 10 16.0934 N/A
7:55 pm 19:55 Cloudy 32 0 23 -5 69 69 ESE 10 17 30.39 1029 10 16.0934 N/A
8:15 pm 20:15 Cloudy 32 0 23 -5 69 69 ESE 12 19 30.38 1029 10 16.0934 N/A
8:35 pm 20:35 Cloudy 32 0 23 -5 69 69 E 13 20 30.37 1028 10 16.0934 N/A
8:55 pm 20:55 Cloudy 32 0 25 -4 75 75 ESE 9 15 30.36 1028 10 16.0934 N/A
9:15 pm 21:15 Mostly Cloudy 32 0 25 -4 75 75 ESE 13 20 30.33 1027 10 16.0934 N/A
9:35 pm 21:35 Mostly Cloudy 32 0 25 -4 75 75 ESE 13 20 30.31 1026 10 16.0934 N/A
9:55 pm 21:55 Mostly Cloudy 32 0 25 -4 75 75 ESE 16 26 30.28 1025 10 16.0934 N/A
10:15 pm 22:15 Partly Cloudy 32 0 25 -4 75 75 SE 15 24 30.27 1025 10 16.0934 N/A
10:35 pm 22:35 Clear 32 0 25 -4 75 75 SE 17 28 30.26 1025 10 16.0934 N/A
10:55 pm 22:55 Clear 32 0 25 -4 75 75 SE 17 28 30.23 1024 10 16.0934 N/A
11:15 pm 23:15 Clear 32 0 25 -4 75 75 SE 14 22 30.21 1023 10 16.0934 N/A
11:35 pm 23:35 Clear 32 0 27 -3 80 80 SE 14 22 30.21 1023 10 16.0934 N/A
11:55 pm 23:55 Clear 32 0 27 -3 80 80 SE 13 20 30.19 1022 10 16.0934 N/A

Powered by AerisWeather